CST,Max TemperatureF,Mean TemperatureF,Min TemperatureF,Max Dew PointF,MeanDew PointF,Min DewpointF,Max Humidity, Mean Humidity, Min Humidity, Max Sea Level PressureIn, Mean Sea Level PressureIn, Min Sea Level PressureIn, Max VisibilityMiles, Mean VisibilityMiles, Min VisibilityMiles, Max Wind SpeedMPH, Mean Wind SpeedMPH, Max Gust SpeedMPH,PrecipitationIn, CloudCover, Events, WindDirDegrees
2013-12-1,35,32,30,28,26,25,93,79,65,30.12,30.07,29.98,10,10,7,8,4,,0.00,8,,349
2013-12-2,37,32,28,32,26,18,100,75,48,29.98,29.89,29.84,10,10,8,13,3,,0.00,7,,117
2013-12-3,37,34,30,34,29,27,100,84,65,29.89,29.84,29.82,10,7,1,22,15,30,0.01,8,,101
2013-12-4,46,37,28,43,36,27,100,93,81,29.85,29.64,29.34,10,5,1,17,10,31,0.41,8,,94
2013-12-5,39,24,8,34,12,1,87,67,49,30.16,29.81,29.42,10,10,10,20,13,33,0.07,3,,271
2013-12-6,15,9,3,1,0,-4,85,69,49,30.44,30.30,30.17,10,10,10,10,8,17,0.00,0,,287
2013-12-7,12,6,0,0,-5,-9,85,66,45,30.59,30.54,30.44,10,10,10,12,7,17,0.00,0,,279
2013-12-8,12,6,0,12,2,-8,100,81,66,30.55,30.33,29.96,10,6,2,8,4,,0.00,6,,347
2013-12-9,19,8,-2,12,3,-9,100,74,48,30.05,29.90,29.80,10,9,4,18,8,31,0.00,4,,284
2013-12-10,12,4,-4,1,-3,-11,100,73,57,30.13,29.94,29.81,10,9,1,15,6,21,0.00,2,,271
2013-12-11,8,2,-4,0,-8,-13,85,66,44,30.39,30.30,30.13,10,10,10,12,8,18,0.00,0,,285
2013-12-12,15,6,-4,7,-2,-11,92,69,57,30.36,30.18,30.10,10,10,5,12,6,18,0.00,5,,269
2013-12-13,15,12,10,9,3,-2,79,65,49,30.32,30.24,30.11,10,10,5,13,6,17,0.00,8,,9
2013-12-14,19,16,12,16,11,3,100,84,67,30.31,30.11,29.85,10,6,1,18,9,23,0.00,8,,15
2013-12-15,15,8,1,14,2,-4,93,69,49,30.04,29.88,29.80,10,9,1,15,7,26,0.00,2,,307
2013-12-16,17,6,-5,12,3,-9,100,82,62,30.11,30.01,29.88,10,9,1,12,6,16,0.00,4,,269
2013-12-17,26,18,10,21,15,7,100,81,69,29.95,29.84,29.80,10,8,1,13,5,17,0.00,8,,268
2013-12-18,21,13,5,12,6,0,100,74,58,30.02,29.87,29.68,10,10,9,12,5,,0.00,3,,261
2013-12-19,26,16,6,19,13,3,100,81,63,30.07,29.95,29.72,10,9,2,15,5,20,0.00,6,,8
2013-12-20,23,21,19,21,18,14,100,89,80,30.00,29.92,29.82,10,6,1,13,9,18,0.00,8,,28
2013-12-21,24,22,19,19,18,16,100,84,74,29.95,29.89,29.81,10,10,4,15,7,22,0.00,5,,22
2013-12-22,24,22,19,21,18,14,100,88,74,30.08,29.91,29.81,10,5,1,18,12,25,0.01,8,,29
2013-12-23,21,16,8,19,12,3,100,81,62,30.36,30.24,30.09,10,9,3,12,6,,0.00,7,,355
2013-12-24,17,8,-2,9,1,-8,100,76,49,30.47,30.39,30.26,10,10,9,9,4,,0.00,1,,275
2013-12-25,17,12,8,16,10,3,100,85,68,30.24,30.08,29.99,10,7,1,12,7,16,0.00,8,,244
2013-12-26,15,10,6,14,7,3,100,81,62,30.19,30.12,29.98,10,9,5,7,3,,0.00,7,,281
2013-12-27,32,23,14,28,19,7,93,84,68,30.20,30.04,29.85,10,8,5,18,4,25,0.00,5,,234
2013-12-28,35,28,21,28,26,21,100,88,70,29.96,29.85,29.72,10,7,0,10,4,,0.00,4,,234
2013-12-29,30,15,0,30,4,-9,100,65,48,30.16,29.96,29.71,10,10,3,20,12,30,0.00,5,,350
2013-12-30,3,-4,-11,-6,-11,-20,100,70,51,30.25,30.17,30.09,10,10,5,9,4,,0.00,3,,274
2013-12-31,6,0,-7,-6,-11,-17,100,67,47,30.37,30.19,30.08,10,10,10,12,6,20,0.00,0,,296